sat.trackr.live / text

‹ back to catalog

PELICAN-2

NORAD 62631 · 2025-009Y

PAYLOAD ACTIVE UNKNOWN

§ Identity

Operator
Country
US
Launch date
2025-01-14
Launch site
AFWTR
Launch vehicle
Mass (kg)
RCS (m²)

Purposes: earth_obs

External: N2YO · Heavens-Above · Gunter

§ Orbital elements

Epoch: 2026-09-18T12:10:17.315904Z

Period
93.46 min
Inclination
97.2027°
Eccentricity
0.0000728
Mean motion
15.40714450 rev/d
Perigee alt
443.5 km
Apogee alt
444.5 km
Semi-major
6,822.1 km
B*
1.0664e-4
RAAN
351.1143°
Arg perigee
50.3425°
Mean anomaly
309.7886°
Rev number
9,392

§ Raw data

PELICAN-21 62631U 25009Y   26261.50714486  .00004272  00000+0  10664-3 0  99902 62631  97.2027 351.1143 0000728  50.3425 309.7886 15.40714450 93926

JSON: /api/v1/satellites/62631 · /tle

For live sub-satellite position, see the globe view (requires WebGL).

§ Visibility from observer

Set your observer location to see the next 7 days of passes ≥ 10°. The values pass through the URL so the page stays shareable.

No JS? Fill the form by hand. The geolocation button needs JavaScript.